Lid_Strength_Index
4 4 4 4 4 4 4 4 5 4 4 4 4 4 4 5 5 6 9 6 4 -1 -1 1 2 2 3 5 4 4 12 14 11 10 10 7 8 5 4 6 5 4 5 4 2
4 4 4 4 4 4 5 5 4 4 4 3 4 5 5 5 6 8 4 -2 -2 -1 2 3 5 4 6 6 6 8 12 11 7 7 8 7 7 6 7 7 6 5 4 3 3
4 5 5 4 4 4 4 5 5 4 4 3 4 5 5 4 7 7 -1 -3 -2 -1 1 2 3 4 7 6 7 8 11 8 7 6 6 7 7 6 7 8 6 7 5 4 4
4 5 5 5 5 4 5 4 5 4 4 4 4 5 4 6 11 6 -2 -2 -1 1 1 3 4 6 8 9 6 9 7 7 7 6 6 7 6 7 6 6 4 4 4 4 4
5 5 5 5 5 5 5 4 4 4 4 4 3 4 7 11 9 1 -1 -1 0 2 3 4 5 6 8 8 7 9 7 6 6 6 6 6 7 7 7 5 4 4 4 4 4
5 5 5 5 5 5 5 4 4 4 4 4 3 4 8 13 5 -0 0 1 2 2 3 4 5 5 7 7 8 7 7 7 7 6 6 7 7 6 6 4 5 4 4 4 4
5 5 5 5 5 5 4 4 4 3 3 4 3 4 8 10 4 0 1 3 2 2 4 3 3 5 6 8 5 6 9 7 7 7 8 6 9 9 5 5 5 5 4 4 4
5 5 5 5 5 5 4 4 4 3 3 2 3 5 12 7 3 3 4 6 5 2 2 2 3 5 6 5 7 9 9 12 8 7 7 8 12 8 5 6 6 5 5 4 4
5 5 5 5 5 5 5 5 4 3 2 2 6 8 11 4 6 6 5 6 6 5 4 1 3 7 7 9 11 10 13 12 10 7 7 8 11 7 5 6 6 6 5 5 4
5 5 5 6 6 6 6 5 3 3 3 2 4 9 8 7 5 5 6 6 6 6 6 5 6 9 9 11 14 13 13 12 12 9 8 9 9 8 6 6 7 6 6 5 5
5 5 5 6 6 6 7 7 8 9 7 12 11 8 6 5 5 5 5 7 7 7 9 7 10 12 10 9 9 10 12 11 10 8 10 10 10 9 7 7 7 6 6 6 5
4 5 5 6 6 6 8 8 7 6 8 6 8 7 6 6 8 6 5 8 8 9 8 9 11 8 7 8 9 10 11 12 10 8 9 10 11 8 7 7 6 6 6 5 6
5 5 5 6 6 8 9 8 5 7 10 7 7 8 8 7 8 7 6 7 8 9 10 10 9 7 7 9 10 11 12 11 12 9 9 10 12 10 8 7 6 6 5 5 5
5 5 5 6 8 8 7 7 6 6 11 9 9 7 8 7 8 5 7 8 9 10 10 10 9 10 10 10 10 14 9 9 10 12 15 10 17 12 10 9 8 7 6 5 6
5 5 6 6 10 9 6 8 8 7 16 8 9 6 8 8 8 7 6 9 10 10 12 12 11 11 13 11 9 10 8 9 10 12 13 13 14 12 10 11 9 7 6 5 5
5 6 6 8 10 8 7 8 7 12 15 10 9 11 10 10 8 7 8 7 9 11 12 12 11 11 11 9 10 9 10 12 12 14 16 13 14 14 13 10 9 7 6 5 5
6 6 7 6 10 7 8 7 12 15 9 11 11 12 12 11 10 9 9 10 11 15 15 13 12 11 9 11 11 12 14 16 16 17 16 13 14 12 9 8 8 7 6 5 5
7 7 8 6 8 8 8 9 14 11 10 8 12 12 11 10 10 10 10 11 11 11 13 15 15 12 10 10 11 13 13 16 19 18 16 14 15 11 8 7 6 6 6 5 5
7 9 10 8 7 8 8 13 14 11 8 9 11 13 13 11 11 11 12 12 10 11 12 15 14 9 9 10 9 14 15 14 17 18 17 15 13 10 8 8 7 7 6 6 5
10 9 8 7 7 8 10 12 12 9 8 9 12 12 13 12 12 12 12 10 10 9 10 13 14 12 10 10 11 13 12 16 17 18 19 17 15 13 11 9 8 8 7 6 6
8 8 6 7 8 9 12 12 10 8 8 9 11 11 11 11 12 13 12 10 9 10 11 13 13 12 11 13 14 12 13 15 16 17 18 18 14 11 11 9 8 8 7 7 6
10 9 6 9 11 13 12 9 8 9 9 9 9 10 11 10 11 11 12 9 7 10 11 12 14 14 12 10 10 12 14 15 16 17 18 16 14 8 8 8 8 8 7 6 6
11 10 5 8 12 13 11 10 8 9 10 10 10 9 9 11 12 10 9 7 7 8 11 10 14 16 14 12 11 11 11 14 16 16 16 16 14 8 8 8 8 8 7 6 6
9 9 9 10 11 12 11 10 10 7 8 8 10 10 11 12 10 11 10 7 7 7 5 8 14 14 15 14 12 12 10 11 14 15 15 15 13 11 10 9 8 7 6 7 8
8 10 10 11 10 11 11 10 10 9 8 9 10 10 12 13 12 12 11 10 8 7 8 11 13 12 12 11 10 11 10 11 13 13 14 13 12 11 10 9 8 7 6 7 7
9 11 10 11 10 11 11 11 9 10 10 10 10 10 11 12 12 12 12 13 12 11 12 11 12 11 13 11 10 11 11 11 11 11 12 11 12 9 8 8 8 7 7 7 6
7 7 9 11 11 12 11 10 9 9 9 8 9 10 11 11 10 11 10 11 12 13 13 12 13 13 15 13 11 13 12 11 11 10 12 13 12 9 8 8 8 8 7 7 6